Time,TemperatureF,DewpointF,PressureIn,WindDirection,WindDirectionDegrees,WindSpeedMPH,WindSpeedGustMPH,Humidity,HourlyPrecipIn,Conditions,Clouds,dailyrainin,SoftwareType,DateUTC
2013-07-29 00:05:00,69.4,69.4,29.98,West,260,1.0,1.0,100,0.00,,,0.00,Wunderground v.1.15,2013-07-29 04:05:00,
2013-07-29 00:10:00,69.4,69.4,29.98,West,260,0.0,0.0,100,0.00,,,0.00,Wunderground v.1.15,2013-07-29 04:10:00,
2013-07-29 00:15:00,69.4,69.4,29.98,West,260,0.0,0.0,100,0.00,,,0.00,Wunderground v.1.15,2013-07-29 04:15:00,
2013-07-29 00:20:00,69.4,69.4,29.97,West,260,0.0,1.0,100,0.00,,,0.00,Wunderground v.1.15,2013-07-29 04:20:00,
2013-07-29 00:25:00,69.4,69.4,29.97,West,260,1.0,1.0,100,0.00,,,0.00,Wunderground v.1.15,2013-07-29 04:25:00,
2013-07-29 00:35:00,67.9,67.9,29.97,West,260,3.0,5.0,100,0.00,,,0.00,Wunderground v.1.15,2013-07-29 04:35:00,
2013-07-29 00:40:00,67.8,67.8,29.97,West,260,2.0,5.0,100,0.00,,,0.00,Wunderground v.1.15,2013-07-29 04:40:00,
2013-07-29 00:50:00,67.3,67.3,29.98,West,260,3.0,5.0,100,0.00,,,0.00,Wunderground v.1.15,2013-07-29 04:50:00,
2013-07-29 00:55:00,67.3,67.3,29.98,West,260,3.0,5.0,100,0.00,,,0.00,Wunderground v.1.15,2013-07-29 04:55:00,
2013-07-29 01:05:00,67.1,67.1,29.97,West,260,4.0,7.0,100,0.00,,,0.00,Wunderground v.1.15,2013-07-29 05:05:00,
2013-07-29 01:10:00,66.6,66.6,29.97,West,260,4.0,8.0,100,0.00,,,0.00,Wunderground v.1.15,2013-07-29 05:10:00,
2013-07-29 01:15:00,66.0,66.0,29.97,West,260,4.0,8.0,100,0.00,,,0.00,Wunderground v.1.15,2013-07-29 05:15:00,
2013-07-29 01:25:00,65.6,65.6,29.96,West,260,5.0,6.0,100,0.00,,,0.00,Wunderground v.1.15,2013-07-29 05:25:00,
2013-07-29 01:35:00,66.1,66.1,29.97,West,260,4.0,4.0,100,0.00,,,0.00,Wunderground v.1.15,2013-07-29 05:35:00,
2013-07-29 01:40:00,66.3,66.3,29.97,West,260,3.0,3.0,100,0.00,,,0.00,Wunderground v.1.15,2013-07-29 05:40:00,
2013-07-29 01:50:00,66.4,66.4,29.97,West,260,4.0,4.0,100,0.00,,,0.00,Wunderground v.1.15,2013-07-29 05:50:00,
2013-07-29 01:55:00,66.6,66.6,29.97,West,260,5.0,5.0,100,0.00,,,0.00,Wunderground v.1.15,2013-07-29 05:55:00,
2013-07-29 02:05:00,66.8,66.8,29.98,West,260,4.0,5.0,100,0.00,,,0.00,Wunderground v.1.15,2013-07-29 06:05:00,
2013-07-29 02:10:00,66.8,66.8,29.98,West,260,3.0,4.0,100,0.00,,,0.00,Wunderground v.1.15,2013-07-29 06:10:00,
2013-07-29 02:20:00,66.9,66.9,29.97,West,260,2.0,2.0,100,0.00,,,0.00,Wunderground v.1.15,2013-07-29 06:20:00,
2013-07-29 02:25:00,67.3,67.3,29.97,West,260,2.0,2.0,100,0.00,,,0.00,Wunderground v.1.15,2013-07-29 06:25:00,
2013-07-29 02:35:00,67.4,67.4,29.97,West,260,1.0,3.0,100,0.00,,,0.00,Wunderground v.1.15,2013-07-29 06:35:00,
2013-07-29 02:40:00,67.6,67.6,29.97,West,260,1.0,1.0,100,0.00,,,0.00,Wunderground v.1.15,2013-07-29 06:40:00,
2013-07-29 02:50:00,67.8,67.8,29.96,West,260,0.0,0.0,100,0.00,,,0.00,Wunderground v.1.15,2013-07-29 06:50:00,
2013-07-29 02:55:00,67.9,67.9,29.96,West,260,0.0,0.0,100,0.00,,,0.00,Wunderground v.1.15,2013-07-29 06:55:00,
2013-07-29 03:05:00,67.8,67.8,29.97,West,260,0.0,0.0,100,0.00,,,0.00,Wunderground v.1.15,2013-07-29 07:05:00,
2013-07-29 03:10:00,67.8,67.8,29.97,West,260,0.0,0.0,100,0.00,,,0.00,Wunderground v.1.15,2013-07-29 07:10:00,
2013-07-29 03:20:00,67.9,67.9,29.96,West,260,0.0,0.0,100,0.00,,,0.00,Wunderground v.1.15,2013-07-29 07:20:00,
2013-07-29 03:25:00,68.1,68.1,29.96,West,260,0.0,0.0,100,0.00,,,0.00,Wunderground v.1.15,2013-07-29 07:25:00,
2013-07-29 03:35:00,68.3,68.3,29.97,West,260,2.0,3.0,100,0.00,,,0.00,Wunderground v.1.15,2013-07-29 07:35:00,
2013-07-29 03:40:00,67.8,67.8,29.97,West,260,2.0,2.0,100,0.00,,,0.00,Wunderground v.1.15,2013-07-29 07:40:00,
2013-07-29 03:50:00,67.8,67.8,29.97,West,260,1.0,1.0,100,0.00,,,0.00,Wunderground v.1.15,2013-07-29 07:50:00,
2013-07-29 03:55:00,67.6,67.6,29.97,West,260,0.0,1.0,100,0.00,,,0.00,Wunderground v.1.15,2013-07-29 07:55:00,
2013-07-29 04:05:00,67.6,67.6,29.97,West,260,0.0,2.0,100,0.00,,,0.00,Wunderground v.1.15,2013-07-29 08:05:00,
2013-07-29 04:10:00,67.6,67.6,29.97,West,260,2.0,2.0,100,0.00,,,0.00,Wunderground v.1.15,2013-07-29 08:10:00,
2013-07-29 04:20:00,67.8,67.8,29.98,West,260,1.0,2.0,100,0.00,,,0.00,Wunderground v.1.15,2013-07-29 08:20:00,
2013-07-29 04:25:00,67.8,67.8,29.98,West,260,1.0,2.0,100,0.00,,,0.00,Wunderground v.1.15,2013-07-29 08:25:00,
2013-07-29 04:35:00,67.9,67.9,29.98,West,260,0.0,1.0,100,0.00,,,0.00,Wunderground v.1.15,2013-07-29 08:35:00,
2013-07-29 04:40:00,67.9,67.9,29.98,West,260,0.0,0.0,100,0.00,,,0.01,Wunderground v.1.15,2013-07-29 08:40:00,
2013-07-29 04:50:00,67.9,67.9,29.99,West,260,1.0,1.0,100,0.00,,,0.01,Wunderground v.1.15,2013-07-29 08:50:00,
2013-07-29 04:55:00,67.9,67.9,29.99,West,260,1.0,2.0,100,0.00,,,0.01,Wunderground v.1.15,2013-07-29 08:55:00,
2013-07-29 05:05:00,68.3,68.3,29.99,WSW,258,2.0,3.0,100,0.00,,,0.01,Wunderground v.1.15,2013-07-29 09:05:00,
2013-07-29 05:10:00,68.3,68.3,29.99,West,260,2.0,2.0,100,0.00,,,0.01,Wunderground v.1.15,2013-07-29 09:10:00,
2013-07-29 05:20:00,68.4,68.4,29.99,West,260,1.0,5.0,100,0.00,,,0.01,Wunderground v.1.15,2013-07-29 09:20:00,
2013-07-29 05:25:00,68.4,68.4,29.99,West,260,2.0,5.0,100,0.00,,,0.01,Wunderground v.1.15,2013-07-29 09:25:00,
2013-07-29 05:35:00,68.6,68.6,30.00,West,260,2.0,2.0,100,0.00,,,0.01,Wunderground v.1.15,2013-07-29 09:35:00,
2013-07-29 05:40:00,68.8,68.8,30.00,West,260,2.0,3.0,100,0.00,,,0.01,Wunderground v.1.15,2013-07-29 09:40:00,
2013-07-29 05:50:00,68.9,68.9,30.00,West,260,1.0,1.0,100,0.00,,,0.01,Wunderground v.1.15,2013-07-29 09:50:00,
2013-07-29 05:55:00,69.1,-99.9,30.00,South,178,1.0,1.0,255,0.00,,,0.01,Wunderground v.1.15,2013-07-29 09:55:00,
2013-07-29 06:05:00,69.3,-99.9,29.99,West,260,0.0,0.0,255,0.00,,,0.01,Wunderground v.1.15,2013-07-29 10:05:00,
2013-07-29 06:10:00,69.3,69.3,29.99,West,260,0.0,0.0,100,0.00,,,0.01,Wunderground v.1.15,2013-07-29 10:10:00,
2013-07-29 06:20:00,69.1,69.1,29.99,West,260,1.0,2.0,100,0.00,,,0.01,Wunderground v.1.15,2013-07-29 10:20:00,
2013-07-29 06:25:00,69.1,69.1,29.99,West,260,2.0,3.0,100,0.00,,,0.01,Wunderground v.1.15,2013-07-29 10:25:00,
2013-07-29 06:35:00,68.9,68.9,29.99,West,260,3.0,4.0,100,0.00,,,0.01,Wunderground v.1.15,2013-07-29 10:35:00,
2013-07-29 06:45:00,68.8,68.8,29.99,West,260,4.0,4.0,100,0.00,,,0.01,Wunderground v.1.15,2013-07-29 10:45:00,
2013-07-29 06:50:00,68.8,68.8,29.99,West,260,4.0,5.0,100,0.00,,,0.01,Wunderground v.1.15,2013-07-29 10:50:00,
2013-07-29 06:55:00,68.9,68.9,29.99,West,260,4.0,5.0,100,0.00,,,0.01,Wunderground v.1.15,2013-07-29 10:55:00,
2013-07-29 07:05:00,68.9,68.9,29.99,West,260,5.0,7.0,100,0.00,,,0.01,Wunderground v.1.15,2013-07-29 11:05:00,
2013-07-29 07:10:00,69.1,69.1,29.99,West,260,5.0,5.0,100,0.00,,,0.01,Wunderground v.1.15,2013-07-29 11:10:00,
2013-07-29 07:20:00,69.3,69.3,29.99,WSW,258,4.0,4.0,100,0.00,,,0.01,Wunderground v.1.15,2013-07-29 11:20:00,
2013-07-29 07:25:00,69.3,69.3,29.99,WSW,258,4.0,4.0,100,0.00,,,0.01,Wunderground v.1.15,2013-07-29 11:25:00,
2013-07-29 07:35:00,69.8,69.8,30.00,WSW,258,3.0,5.0,100,0.00,,,0.01,Wunderground v.1.15,2013-07-29 11:35:00,
2013-07-29 07:45:00,70.1,70.1,30.00,WSW,258,3.0,5.0,100,0.00,,,0.01,Wunderground v.1.15,2013-07-29 11:45:00,
2013-07-29 07:50:00,69.9,69.9,30.00,WSW,258,4.0,5.0,100,0.00,,,0.01,Wunderground v.1.15,2013-07-29 11:50:00,
2013-07-29 08:05:00,70.8,70.8,30.00,WSW,258,3.0,4.0,100,0.00,,,0.01,Wunderground v.1.15,2013-07-29 12:05:00,
2013-07-29 08:15:00,71.1,71.1,30.01,WSW,258,3.0,5.0,100,0.00,,,0.01,Wunderground v.1.15,2013-07-29 12:15:00,
2013-07-29 08:25:00,70.8,70.8,30.01,WSW,257,4.0,5.0,100,0.00,,,0.01,Wunderground v.1.15,2013-07-29 12:25:00,
2013-07-29 08:35:00,71.3,71.3,30.01,WSW,253,5.0,7.0,100,0.00,,,0.01,Wunderground v.1.15,2013-07-29 12:35:00,
2013-07-29 08:40:00,72.0,72.0,30.01,WSW,253,4.0,6.0,100,0.00,,,0.01,Wunderground v.1.15,2013-07-29 12:40:00,
2013-07-29 08:50:00,71.5,71.5,30.00,SW,223,5.0,7.0,100,0.00,,,0.01,Wunderground v.1.15,2013-07-29 12:50:00,
2013-07-29 08:55:00,71.5,71.5,30.00,SW,223,5.0,7.0,100,0.00,,,0.01,Wunderground v.1.15,2013-07-29 12:55:00,
2013-07-29 09:05:00,70.4,70.4,30.00,SW,223,7.0,7.0,100,0.00,,,0.01,Wunderground v.1.15,2013-07-29 13:05:00,
2013-07-29 09:10:00,70.9,70.9,30.00,SW,223,6.0,6.0,100,0.00,,,0.01,Wunderground v.1.15,2013-07-29 13:10:00,
2013-07-29 09:20:00,70.8,70.8,30.00,SW,223,6.0,6.0,100,0.00,,,0.01,Wunderground v.1.15,2013-07-29 13:20:00,
2013-07-29 09:25:00,70.8,70.8,30.00,SW,223,5.0,6.0,100,0.00,,,0.01,Wunderground v.1.15,2013-07-29 13:25:00,
2013-07-29 09:35:00,71.5,71.5,30.00,SW,223,6.0,11.0,100,0.00,,,0.01,Wunderground v.1.15,2013-07-29 13:35:00,
2013-07-29 09:40:00,71.8,71.8,30.00,SW,223,7.0,8.0,100,0.00,,,0.01,Wunderground v.1.15,2013-07-29 13:40:00,
2013-07-29 09:50:00,72.5,72.5,30.00,SW,222,7.0,7.0,100,0.00,,,0.01,Wunderground v.1.15,2013-07-29 13:50:00,
2013-07-29 09:55:00,72.8,72.8,30.00,SW,222,8.0,8.0,100,0.00,,,0.01,Wunderground v.1.15,2013-07-29 13:55:00,
2013-07-29 10:00:00,73.0,-99.9,30.00,SW,222,7.0,7.0,255,0.00,,,0.01,Wunderground v.1.15,2013-07-29 14:00:00,
2013-07-29 10:10:00,72.5,-99.9,30.00,SSW,212,8.0,8.0,255,0.00,,,0.01,Wunderground v.1.15,2013-07-29 14:10:00,
2013-07-29 10:20:00,72.0,72.0,30.00,SSW,210,7.0,7.0,100,0.00,,,0.01,Wunderground v.1.15,2013-07-29 14:20:00,
2013-07-29 10:25:00,72.5,72.5,30.00,SSW,210,7.0,7.0,100,0.00,,,0.01,Wunderground v.1.15,2013-07-29 14:25:00,
2013-07-29 10:35:00,72.7,72.7,30.00,SSW,210,7.0,7.0,100,0.00,,,0.01,Wunderground v.1.15,2013-07-29 14:35:00,
2013-07-29 10:40:00,72.7,72.7,30.00,SSW,210,7.0,7.0,100,0.00,,,0.01,Wunderground v.1.15,2013-07-29 14:40:00,
2013-07-29 10:45:00,72.5,72.5,30.01,SSW,210,6.0,7.0,100,0.00,,,0.01,Wunderground v.1.15,2013-07-29 14:45:00,
2013-07-29 10:55:00,72.0,72.0,30.01,SSW,210,6.0,6.0,100,0.00,,,0.01,Wunderground v.1.15,2013-07-29 14:55:00,
2013-07-29 11:05:00,73.0,73.0,30.02,SSW,210,6.0,6.0,100,0.00,,,0.01,Wunderground v.1.15,2013-07-29 15:05:00,
2013-07-29 11:15:00,73.0,73.0,30.02,SSW,210,6.0,8.0,100,0.00,,,0.01,Wunderground v.1.15,2013-07-29 15:15:00,
2013-07-29 11:25:00,73.2,73.2,30.02,SSW,210,4.0,6.0,100,0.00,,,0.01,Wunderground v.1.15,2013-07-29 15:25:00,
2013-07-29 11:30:00,73.5,73.5,30.02,SSW,210,5.0,7.0,100,0.00,,,0.01,Wunderground v.1.15,2013-07-29 15:30:00,
2013-07-29 11:40:00,73.2,73.2,30.02,SSW,210,6.0,8.0,100,0.00,,,0.01,Wunderground v.1.15,2013-07-29 15:40:00,
2013-07-29 11:50:00,73.0,73.0,30.03,SSW,210,6.0,6.0,100,0.00,,,0.01,Wunderground v.1.15,2013-07-29 15:50:00,
2013-07-29 11:55:00,73.7,73.7,30.03,SSW,210,6.0,6.0,100,0.00,,,0.01,Wunderground v.1.15,2013-07-29 15:55:00,
2013-07-29 12:05:00,74.6,74.6,30.02,SSW,210,5.0,6.0,100,0.00,,,0.01,Wunderground v.1.15,2013-07-29 16:05:00,
2013-07-29 12:10:00,75.1,75.1,30.02,SSW,210,4.0,5.0,100,0.00,,,0.01,Wunderground v.1.15,2013-07-29 16:10:00,
2013-07-29 12:15:00,74.9,74.9,30.02,SSW,210,4.0,5.0,100,0.00,,,0.01,Wunderground v.1.15,2013-07-29 16:15:00,
2013-07-29 12:25:00,74.6,74.6,30.02,SSW,210,4.0,6.0,100,0.00,,,0.01,Wunderground v.1.15,2013-07-29 16:25:00,
2013-07-29 12:35:00,75.1,75.1,30.02,SSW,210,4.0,5.0,100,0.00,,,0.01,Wunderground v.1.15,2013-07-29 16:35:00,
2013-07-29 12:50:00,75.3,75.3,30.01,SSW,210,5.0,5.0,100,0.00,,,0.01,Wunderground v.1.15,2013-07-29 16:50:00,
2013-07-29 12:55:00,75.3,75.3,30.01,SSW,210,5.0,5.0,100,0.00,,,0.01,Wunderground v.1.15,2013-07-29 16:55:00,
2013-07-29 13:05:00,75.4,75.4,30.01,SSW,210,5.0,5.0,100,0.00,,,0.01,Wunderground v.1.15,2013-07-29 17:05:00,
2013-07-29 13:10:00,76.0,76.0,30.01,SSW,210,4.0,4.0,100,0.00,,,0.01,Wunderground v.1.15,2013-07-29 17:10:00,
2013-07-29 13:20:00,75.6,75.6,30.01,SSW,212,5.0,8.0,100,0.00,,,0.01,Wunderground v.1.15,2013-07-29 17:20:00,
2013-07-29 13:25:00,75.4,75.4,30.01,SSW,212,5.0,8.0,100,0.00,,,0.01,Wunderground v.1.15,2013-07-29 17:25:00,
2013-07-29 13:35:00,74.7,74.7,30.01,SSW,212,5.0,5.0,100,0.00,,,0.01,Wunderground v.1.15,2013-07-29 17:35:00,
2013-07-29 13:40:00,74.9,74.9,30.01,South,182,4.0,4.0,100,0.00,,,0.01,Wunderground v.1.15,2013-07-29 17:40:00,
2013-07-29 13:50:00,73.7,73.7,30.01,SSW,212,6.0,7.0,100,0.00,,,0.01,Wunderground v.1.15,2013-07-29 17:50:00,
2013-07-29 14:00:00,72.5,72.5,30.01,SSW,212,7.0,7.0,100,0.00,,,0.01,Wunderground v.1.15,2013-07-29 18:00:00,
2013-07-29 14:05:00,72.3,72.3,30.01,SSW,212,6.0,7.0,100,0.00,,,0.01,Wunderground v.1.15,2013-07-29 18:05:00,
2013-07-29 14:15:00,72.3,72.3,30.01,SSW,212,6.0,6.0,100,0.00,,,0.01,Wunderground v.1.15,2013-07-29 18:15:00,
2013-07-29 14:20:00,72.1,72.1,30.01,SSW,212,6.0,6.0,100,0.00,,,0.01,Wunderground v.1.15,2013-07-29 18:20:00,
2013-07-29 14:25:00,72.7,72.7,30.01,SSW,212,5.0,6.0,100,0.00,,,0.01,Wunderground v.1.15,2013-07-29 18:25:00,
2013-07-29 14:35:00,73.2,73.2,30.00,SSW,212,4.0,5.0,100,0.00,,,0.01,Wunderground v.1.15,2013-07-29 18:35:00,
2013-07-29 14:40:00,73.3,73.3,30.00,SSW,212,5.0,5.0,100,0.00,,,0.01,Wunderground v.1.15,2013-07-29 18:40:00,
2013-07-29 14:50:00,73.5,73.5,30.00,SSW,212,4.0,4.0,100,0.00,,,0.01,Wunderground v.1.15,2013-07-29 18:50:00,
2013-07-29 14:55:00,73.3,73.3,30.00,SSW,212,4.0,5.0,100,0.00,,,0.01,Wunderground v.1.15,2013-07-29 18:55:00,
2013-07-29 15:05:00,73.7,73.7,30.00,SSW,212,5.0,6.0,100,0.00,,,0.01,Wunderground v.1.15,2013-07-29 19:05:00,
2013-07-29 15:10:00,74.0,74.0,30.00,SSW,212,5.0,5.0,100,0.00,,,0.01,Wunderground v.1.15,2013-07-29 19:10:00,
2013-07-29 15:20:00,74.2,74.2,30.00,SSW,212,5.0,5.0,100,0.00,,,0.01,Wunderground v.1.15,2013-07-29 19:20:00,
2013-07-29 15:25:00,74.2,74.2,30.00,SSW,212,5.0,7.0,100,0.00,,,0.01,Wunderground v.1.15,2013-07-29 19:25:00,
2013-07-29 15:35:00,72.8,72.8,30.00,SSW,212,6.0,7.0,100,0.00,,,0.01,Wunderground v.1.15,2013-07-29 19:35:00,
2013-07-29 15:45:00,72.7,72.7,30.00,SSW,212,5.0,5.0,100,0.00,,,0.01,Wunderground v.1.15,2013-07-29 19:45:00,
2013-07-29 15:55:00,73.0,73.0,30.00,SSW,212,4.0,4.0,100,0.00,,,0.01,Wunderground v.1.15,2013-07-29 19:55:00,
2013-07-29 16:05:00,72.7,72.7,30.00,SSW,212,3.0,4.0,100,0.00,,,0.01,Wunderground v.1.15,2013-07-29 20:05:00,
2013-07-29 16:10:00,72.5,72.5,30.00,SSW,212,4.0,4.0,100,0.00,,,0.01,Wunderground v.1.15,2013-07-29 20:10:00,
2013-07-29 16:20:00,72.1,72.1,30.00,SSW,212,3.0,3.0,100,0.00,,,0.01,Wunderground v.1.15,2013-07-29 20:20:00,
2013-07-29 16:25:00,72.1,72.1,30.00,SSW,212,4.0,5.0,100,0.00,,,0.01,Wunderground v.1.15,2013-07-29 20:25:00,
2013-07-29 16:35:00,72.7,72.7,29.99,SSW,212,4.0,6.0,100,0.00,,,0.01,Wunderground v.1.15,2013-07-29 20:35:00,
2013-07-29 16:40:00,72.7,72.7,29.99,SSW,212,4.0,6.0,100,0.00,,,0.01,Wunderground v.1.15,2013-07-29 20:40:00,
2013-07-29 16:50:00,73.0,73.0,29.99,SSW,212,3.0,3.0,100,0.00,,,0.01,Wunderground v.1.15,2013-07-29 20:50:00,
2013-07-29 16:55:00,73.0,73.0,29.99,SSW,212,2.0,3.0,100,0.00,,,0.01,Wunderground v.1.15,2013-07-29 20:55:00,
2013-07-29 17:05:00,72.5,72.5,29.99,SSW,212,5.0,5.0,100,0.00,,,0.01,Wunderground v.1.15,2013-07-29 21:05:00,
2013-07-29 17:10:00,72.3,72.3,29.99,SSW,212,4.0,4.0,100,0.00,,,0.01,Wunderground v.1.15,2013-07-29 21:10:00,
2013-07-29 17:20:00,72.0,72.0,29.98,SSW,212,3.0,5.0,100,0.00,,,0.01,Wunderground v.1.15,2013-07-29 21:20:00,
2013-07-29 17:30:00,70.9,70.9,29.98,SSW,212,5.0,7.0,100,0.00,,,0.01,Wunderground v.1.15,2013-07-29 21:30:00,
2013-07-29 17:35:00,70.1,70.1,29.99,SSW,212,6.0,7.0,100,0.00,,,0.01,Wunderground v.1.15,2013-07-29 21:35:00,
2013-07-29 17:40:00,69.3,69.3,29.99,SSW,212,6.0,6.0,100,0.00,,,0.01,Wunderground v.1.15,2013-07-29 21:40:00,
2013-07-29 17:50:00,68.9,68.9,29.98,SSW,212,4.0,5.0,100,0.00,,,0.01,Wunderground v.1.15,2013-07-29 21:50:00,
2013-07-29 17:55:00,68.8,68.8,29.98,SSW,212,5.0,5.0,100,0.00,,,0.01,Wunderground v.1.15,2013-07-29 21:55:00,
2013-07-29 18:05:00,68.4,-99.9,29.98,SSW,212,5.0,5.0,255,0.00,,,0.01,Wunderground v.1.15,2013-07-29 22:05:00,
2013-07-29 18:10:00,68.8,68.8,29.98,SSW,212,4.0,4.0,100,0.00,,,0.01,Wunderground v.1.15,2013-07-29 22:10:00,
2013-07-29 18:20:00,69.4,69.4,29.98,SSW,212,3.0,3.0,100,0.00,,,0.01,Wunderground v.1.15,2013-07-29 22:20:00,
2013-07-29 18:25:00,69.6,-99.9,29.98,SSW,212,4.0,4.0,255,0.00,,,0.01,Wunderground v.1.15,2013-07-29 22:25:00,
2013-07-29 18:35:00,69.6,69.6,29.98,SSW,212,4.0,4.0,100,0.00,,,0.01,Wunderground v.1.15,2013-07-29 22:35:00,
2013-07-29 18:40:00,69.3,69.3,29.98,SSW,212,4.0,4.0,100,0.00,,,0.01,Wunderground v.1.15,2013-07-29 22:40:00,
2013-07-29 18:50:00,69.1,69.1,29.99,SSW,212,3.0,3.0,100,0.00,,,0.01,Wunderground v.1.15,2013-07-29 22:50:00,
2013-07-29 18:55:00,69.3,69.3,29.99,SSW,212,3.0,3.0,100,0.00,,,0.01,Wunderground v.1.15,2013-07-29 22:55:00,
2013-07-29 19:05:00,69.3,-99.9,29.99,SSW,212,3.0,3.0,255,0.00,,,0.01,Wunderground v.1.15,2013-07-29 23:05:00,
2013-07-29 19:10:00,69.4,69.4,29.99,SSW,212,3.0,3.0,100,0.00,,,0.01,Wunderground v.1.15,2013-07-29 23:10:00,
2013-07-29 19:20:00,70.1,70.1,29.99,SSW,212,3.0,3.0,100,0.00,,,0.01,Wunderground v.1.15,2013-07-29 23:20:00,
2013-07-29 19:25:00,70.1,70.1,29.99,SSW,212,4.0,5.0,100,0.00,,,0.01,Wunderground v.1.15,2013-07-29 23:25:00,
2013-07-29 19:40:00,69.9,69.9,29.99,SSW,212,2.0,2.0,100,0.00,,,0.01,Wunderground v.1.15,2013-07-29 23:40:00,
2013-07-29 19:50:00,68.9,68.9,30.00,SSW,212,2.0,4.0,100,0.00,,,0.01,Wunderground v.1.15,2013-07-29 23:50:00,
2013-07-29 20:00:00,69.3,69.3,30.00,SSW,212,3.0,3.0,100,0.00,,,0.01,Wunderground v.1.15,2013-07-30 00:00:00,
2013-07-29 20:10:00,69.9,69.9,30.00,SSW,212,3.0,3.0,100,0.00,,,0.01,Wunderground v.1.15,2013-07-30 00:10:00,
2013-07-29 20:20:00,70.1,70.1,30.00,SSW,212,4.0,4.0,100,0.00,,,0.01,Wunderground v.1.15,2013-07-30 00:20:00,
2013-07-29 20:25:00,70.3,70.3,30.00,SSW,212,5.0,5.0,100,0.00,,,0.01,Wunderground v.1.15,2013-07-30 00:25:00,
2013-07-29 20:35:00,70.3,70.3,30.00,SSW,212,4.0,5.0,100,0.00,,,0.01,Wunderground v.1.15,2013-07-30 00:35:00,
2013-07-29 20:40:00,69.9,69.9,30.00,SSW,212,5.0,8.0,100,0.00,,,0.01,Wunderground v.1.15,2013-07-30 00:40:00,
2013-07-29 20:50:00,70.1,70.1,30.01,SSW,212,5.0,5.0,100,0.00,,,0.01,Wunderground v.1.15,2013-07-30 00:50:00,
2013-07-29 20:55:00,70.6,70.6,30.01,SW,220,5.0,6.0,100,0.00,,,0.01,Wunderground v.1.15,2013-07-30 00:55:00,
2013-07-29 21:05:00,71.5,71.5,30.01,SW,225,5.0,5.0,100,0.00,,,0.01,Wunderground v.1.15,2013-07-30 01:05:00,
2013-07-29 21:10:00,71.6,71.6,30.01,SW,223,4.0,4.0,100,0.00,,,0.01,Wunderground v.1.15,2013-07-30 01:10:00,
2013-07-29 21:20:00,71.6,71.6,30.01,SW,227,4.0,4.0,100,0.00,,,0.01,Wunderground v.1.15,2013-07-30 01:20:00,
2013-07-29 21:25:00,71.6,71.6,30.01,SW,227,4.0,4.0,100,0.00,,,0.01,Wunderground v.1.15,2013-07-30 01:25:00,
2013-07-29 21:35:00,71.8,71.8,30.00,SW,229,4.0,6.0,100,0.00,,,0.01,Wunderground v.1.15,2013-07-30 01:35:00,
2013-07-29 21:40:00,71.8,71.8,30.00,SW,229,4.0,4.0,100,0.00,,,0.01,Wunderground v.1.15,2013-07-30 01:40:00,
2013-07-29 22:05:00,72.5,72.5,30.01,SW,234,4.0,4.0,100,0.00,,,0.01,Wunderground v.1.15,2013-07-30 02:05:00,
2013-07-29 22:10:00,72.5,72.5,30.01,SW,234,5.0,5.0,100,0.00,,,0.01,Wunderground v.1.15,2013-07-30 02:10:00,
2013-07-29 22:20:00,72.7,72.7,30.01,WSW,247,6.0,6.0,100,0.00,,,0.01,Wunderground v.1.15,2013-07-30 02:20:00,
2013-07-29 22:25:00,72.7,72.7,30.01,WSW,247,6.0,7.0,100,0.00,,,0.01,Wunderground v.1.15,2013-07-30 02:25:00,
2013-07-29 22:35:00,72.5,72.5,30.01,WSW,249,5.0,5.0,100,0.00,,,0.01,Wunderground v.1.15,2013-07-30 02:35:00,
2013-07-29 22:40:00,72.5,72.5,30.01,WSW,249,4.0,4.0,100,0.00,,,0.01,Wunderground v.1.15,2013-07-30 02:40:00,
2013-07-29 22:50:00,72.5,72.5,30.01,WSW,251,5.0,8.0,100,0.00,,,0.01,Wunderground v.1.15,2013-07-30 02:50:00,
2013-07-29 22:55:00,72.3,72.3,30.01,WSW,253,6.0,10.0,100,0.00,,,0.01,Wunderground v.1.15,2013-07-30 02:55:00,
2013-07-29 23:00:00,72.3,72.3,30.01,WSW,253,6.0,6.0,100,0.00,,,0.01,Wunderground v.1.15,2013-07-30 03:00:00,
2013-07-29 23:20:00,72.7,72.7,30.01,WSW,253,6.0,6.0,100,0.00,,,0.01,Wunderground v.1.15,2013-07-30 03:20:00,
2013-07-29 23:25:00,72.7,72.7,30.01,WSW,253,4.0,6.0,100,0.00,,,0.01,Wunderground v.1.15,2013-07-30 03:25:00,
2013-07-29 23:40:00,72.5,72.5,30.00,WSW,253,5.0,8.0,100,0.00,,,0.01,Wunderground v.1.15,2013-07-30 03:40:00,
2013-07-29 23:50:00,72.3,72.3,30.01,WSW,253,5.0,6.0,100,0.00,,,0.01,Wunderground v.1.15,2013-07-30 03:50:00,
2013-07-29 23:55:00,72.3,72.3,30.01,WSW,253,5.0,6.0,100,0.00,,,0.01,Wunderground v.1.15,2013-07-30 03:55:00,